Regional Weather Roundup
Issued by NWS

Home | Current Version | Previous Version | Text Only | Print | Product List | Glossary Off
Versions: 1 2 3 4 5 6 7 8 9 10 11 12 13 14 15 16 17 18 19 20 21 22 23 24 25 26 27 28 29 30 31 32 33 34 35 36 37 38 39 40 41 42 43 44 45 46 47 48 49 50

000
ASUS43 KDTX 290201
RWRMI
MICHIGAN HOURLY REGIONAL WEATHER ROUNDUP
NATIONAL WEATHER SERVICE DETROIT/PONTIAC MI
1000 PM EDT MON JUL 28 2014

NOTE: "FAIR" INDICATES FEW OR NO CLOUDS BELOW 12,000 FEET WITH NO
SIGNIFICANT WEATHER AND/OR OBSTRUCTION TO VISIBILITY.

MIZ047>049-052>055-059>063-066>070-074>076-081>083-290300-
SOUTHEAST LOWER MICHIGAN

CITY           SKY/WX    TMP DP  RH WIND       PRES   REMARKS
ADRIAN         MOCLDY    60  51  72 NE10      30.01R
ALMA           PTCLDY    52  49  90 CALM      30.03R
ANN ARBOR      PTCLDY    58  47  66 N9        30.01R
BAD AXE        CLEAR     53  49  86 W3        29.99R
CARO           PTCLDY    55  53  95 CALM      29.99R
DETROIT CITY   CLEAR     61  46  57 N6        30.00R
DETROIT        MOCLDY    59  47  64 N12       30.01R
FLINT          PTCLDY    54  47  77 W6        30.01R
GROSSE ILE     MOCLDY    63  48  59 N8        29.99R
HILLSDALE      MOCLDY    61  50  66 N8        30.02R
HOWELL         PTCLDY    56  46  69 N3        30.02R

CITY           SKY/WX    TMP DP  RH WIND       PRES   REMARKS
JACKSON        CLOUDY    58  50  75 CALM      30.03R
LAMBERTVILLE   PTCLDY    61  52  72 N6        30.00R
LANSING        CLEAR     55  47  74 NW3       30.03R
LAPEER         CLOUDY    56  48  74 CALM      30.00S
MASON          PTCLDY    56  47  70 N3        30.03R
MONROE         CLEAR     57  52  82 N5        29.99R
MT. CLEMENS    PTCLDY    56  46  69 NW6       29.98R
PONTIAC        MOCLDY    57  47  69 N6        30.01R
PORT HOPE        N/A     61  49  64 VRB3      29.96S
PORT HURON     CLOUDY    55  48  76 NW3       29.99R
TRI CITIES     MOCLDY    58  49  72 SW3       30.02R
TROY           MOCLDY    58  48  71 N3        30.02R
SAGINAW HB     MOCLDY    55  46  71 W5        30.00S
$$
MIZ043>046-050>051-056>058-064>065-071>073-077>080-290300-
SOUTHWEST LOWER MICHIGAN

CITY           SKY/WX    TMP DP  RH WIND       PRES   REMARKS
BATTLE CREEK   PTCLDY    57  48  72 W6        30.04R
BENTON HARBOR  CLOUDY    53  50  89 CALM      30.05S
BIG RAPIDS     CLEAR     55  49  81 NW6       30.03R
COLDWATER      MOCLDY    62  51  67 N9        30.03R
FREMONT        FAIR      55  50  81 CALM      30.03S
HOLLAND        CLEAR     57  48  72 NW3       30.05R
GRAND RAPIDS   CLEAR     60  46  59 N5        30.04R
IONIA          FAIR      57  47  71 CALM      30.03R
KALAMAZOO      CLEAR     57  49  74 NW8       30.05R
LUDINGTON      CLEAR     55  52  90 CALM      30.05R
MARSHALL       CLEAR     56  47  73 W5        30.03R
MOUNT PLEASANT CLEAR     56  50  81 CALM      30.01S
MUSKEGON       CLEAR     59  48  67 NW5       30.05R
SOUTH HAVEN    MOCLDY    55  48  79 CALM      30.05S
$$
MIZ016>042-290300-
NORTHERN LOWER MICHIGAN

CITY           SKY/WX    TMP DP  RH WIND       PRES   REMARKS
ALPENA         CLEAR     54  50  86 W5        29.98R
BEAVER ISLAND  PTCLDY    57  56  97 W6        30.00R
BELLAIRE       CLOUDY    58  51  78 CALM      30.01S
CADILLAC       CLEAR     51  49  95 CALM      30.03R
CHARLEVOIX     CLOUDY    60  52  74 SW8       30.03S
FRANKFORT      CLEAR     52  47  83 CALM      30.03R
GAYLORD        PTCLDY    56  49  77 W7        30.01R
GRAYLING       PTCLDY    55  50  83 W6        30.02R
HARBOR SPRINGS CLOUDY    61  53  74 W5        30.00S
HOUGHTON LAKE  CLEAR     54  48  80 NW6       30.01S
MANISTEE       CLEAR     54  46  76 CALM      30.04S
OSCODA         CLOUDY    56  49  77 W5        29.98R
PELLSTON       MOCLDY    59  53  80 W5        29.99S
ROGERS CITY    CLEAR     55  51  86 W3        29.99R
TRAVERSE CITY  PTCLDY    58  48  69 S5        30.01S
$$
MIZ007>008-015-290300-
EASTERN UPPER MICHIGAN

CITY           SKY/WX    TMP DP  RH WIND       PRES   REMARKS
KINROSS        MOCLDY    54  48  82 NW6       29.97S
MACKINAC ISLAN PTCLDY    59  50  71 NW3       29.98S
NEWBERRY       PTCLDY    57  49  74 CALM      29.97F
S. S. MARIE    MOCLDY    53  48  83 W6        29.96F
MUNISING         N/A     60  52  74 S3        29.98S
$$
MIZ004>006-011>014-085-290300-
CENTRAL UPPER MICHIGAN

CITY           SKY/WX    TMP DP  RH WIND       PRES   REMARKS
MANISTIQUE     PTCLDY    58  49  74 CALM      29.99S
ESCANABA       CLOUDY    63  54  72 CALM      30.00S
MENOMINEE      MOCLDY    64  55  72 CALM      30.01S
$$
MIZ001>003-009>011-084-290300-
WESTERN UPPER MICHIGAN

CITY           SKY/WX    TMP DP  RH WIND       PRES   REMARKS
IRON MOUNTAIN  CLOUDY    65  53  65 NW6       30.02S
COPPER HARBOR    N/A     64  53  67 N13       29.98S
$$

ABBREVIATIONS USED IN REMARKS
   TC - TEMPERATURE IN CELSIUS
  WCI - WIND CHILL INDEX
   HX - HEAT INDEX
  VSB - VISIBILITY




USA.gov is the U.S. government's official web portal to all federal, state and local government web resources and services.